Weather in Morlaix

France     48°34′38″N   3°49′36″W
temp.,
°C
wind,
m/s
gust,
m/s
humid.,
%
clouds,
%
prec.,
mm/h
press.,
hPa
HPBL,
m
13 may, thu
thu1323:00+6wsw269749 0.0 1009137
02:00+7wsw269391 0.0 1009228
05:00+5sw269954 0.0 1009142
08:00+7wsw269886 0.0 1008231
11:00+11nw457656 0.3 1008979
14:00+13nw57511 0.4 10071263
17:00+13nw57530 0.0 10081244
20:00+10nw586911 0.0 10091041
14 may, fri
fri1423:00+7wnw5118873 0.0 1010589
02:00+9wnw51087100 0.0 1011769
05:00+7wnw4109723 0.0 1011411
08:00+8w399628 0.0 1012416
11:00+13wnw466313 0.0 10121247
14:00+14wnw4563100 0.2 10121435
17:00+13sw5565100 0.2 10111182
20:00+9sw4889100 0.5 1010749
15 may, sat
sat1523:00+7sse51296100 1.8 1007765
02:00+9s51298100 1.9 1004619
05:00+9wsw51195100 0.1 1004598
08:00+9wsw4119669 0.1 1005679
11:00+12wsw610757 0.3 10051243
14:00+14wsw7117263 1.5 10051473
17:00+14wsw7116999 1.1 10051415
20:00+12wsw5117593 1.4 10051200
16 may, sun
sun1623:00+9sw4119413 0.0 1006551
02:00+9sw412916 0.0 1005645
05:00+8sw5129117 0.0 1004713
08:00+9sw6128735 0.0 10041023
11:00+12wsw8147814 0.4 10031400
14:00+12wsw8158796 2.2 10041395
17:00+13wsw9168024 1.4 10031597
20:00+10wsw8168598 2.3 10041354
17 may, mon
mon1723:00+10wsw81587100 0.4 10051199
02:00+10w8148898 0.6 10061083
05:00+10w7138799 0.1 1007955
08:00+10w6128980 0.2 1008947
11:00+12w7117421 0.5 10101323
14:00+14w7106630 1.4 10111673
17:00+12w697577 1.2 10121344
20:00+11w59805 2.1 10131092